AirNav   Free Bose QuietComfort 20
 
 834 users online  

4J2 Berrien County Airport
Nashville, Georgia, USA

GOING TO NASHVILLE?


FAA INFORMATION EFFECTIVE 05 DECEMBER 2019

Location

FAA Identifier: 4J2
Lat/Long: 31-12-45.1605N 083-13-30.9236W
31-12.752675N 083-13.515393W
31.2125446,-83.2252566
(estimated)
Elevation: 240.1 ft. / 73.2 m (surveyed)
Variation: 03W (1995)
From city: 1 mile E of NASHVILLE, GA
Time zone: UTC -5 (UTC -4 during Daylight Saving Time)
Zip code: 31639

Airport Operations

Airport use: Open to the public
Control tower: no
ARTCC: JACKSONVILLE CENTER
FSS: MACON FLIGHT SERVICE STATION
NOTAMs facility: MCN (NOTAM-D service available)
Attendance: UNATTENDED
Wind indicator: lighted
Segmented circle: yes
Lights: MIRL 10/28 PRESET LOW INTST DUSK-DAWN; TO INCREASE INTST ACTVT - CTAF. PAPI RWY 10 AND PAPI RWY 28 - CTAF.
Beacon: white-green (lighted land airport)
Operates sunset to sunrise.

Airport Communications

CTAF/UNICOM: 122.7
VALDOSTA APPROACH: 126.6 ;EAST OF VAD 360-VAD 180 132.375 ;WEST OF VAD R-360 RADIAL
VALDOSTA DEPARTURE: 126.6 ;EAST OF VAD 360-VAD 180 132.375 ;WEST OF VAD R-360 RADIAL
IC: 126.6 ;EAST OF VAD 360-VAD 180
WX AWOS-3PT at TMA (19 nm NW): 118.525 (229-386-8937)
  • APCH/DEP SVC PRVDD BY JACKSONVILLE ARTCC ON FREQS 133.7/399.6 (VALDOSTA RCAG) WHEN VALDOSTA APCH CTL CLSD.

Nearby radio navigation aids

VOR radial/distance  VOR name  Freq  Var
IFMr135/(18.7)TIFT MYERS VOR112.5001W
OTKr008/26.1VALDOSTA VOR/DME114.8002W
AYSr264/34.5WAYCROSS VORTAC110.2000E

 
NDB name  Hdg/Dist  Freq  Var  ID
COFFEE COUNTY239/19.339006WOWC --- .-- -.-.
FITZGERALD177/24.336205WSUR ... ..- .-.
HOMERVILLE298/25.120906WHOE .... --- .
PATON069/34.524505WGTP --. - .--.

Airport Services

Fuel available: A
Parking: tiedowns
Bottled oxygen: NONE
Bulk oxygen: NONE

Runway Information

Runway 10/28

Dimensions: 5002 x 75 ft. / 1525 x 23 m
Surface: asphalt, in good condition
Weight bearing capacity: 
Single wheel: 23.0
Runway edge lights: medium intensity
RUNWAY 10  RUNWAY 28
Latitude: 31-12.775823N31-12.729527N
Longitude: 083-13.994645W083-13.036140W
Elevation: 238.2 ft.232.9 ft.
Traffic pattern: leftleft
Runway heading: 097 magnetic, 094 true277 magnetic, 274 true
Markings: nonprecision, in good conditionnonprecision, in good condition
Visual slope indicator: 2-light PAPI on left (3.60 degrees glide path)2-light PAPI on left (4.00 degrees glide path)
Runway end identifier lights: yesyes
Touchdown point: yes, no lightsyes, no lights
Obstructions: 40 ft. trees, 1560 ft. from runway, 400 ft. left of centerline, 34:1 slope to clear8 ft. trees, 280 ft. from runway, 170 ft. right of centerline, 10:1 slope to clear

Airport Ownership and Management from official FAA records

Ownership: Publicly-owned
Owner: BERRIEN COUNTY
201 N DAVIS ST, ROOM 198
NASHVILLE, GA 31639
Phone 229-686-5421
Manager: BRENDA FERRELL
201 N DAVIS ST, ROOM 198
NASHVILLE, GA 31639
Phone 229-686-5421

Airport Operational Statistics

Aircraft based on the field: 11
Single engine airplanes: 8
Jet airplanes: 1
Ultralights: 2
    
Aircraft operations: avg 77/week *
75% local general aviation
25% transient general aviation
* for 12-month period ending 31 December 2017

Additional Remarks

GCO AVBL ON FREQ 121.725 THRU FLT SVCS.
FOR CD CTC JACKSONVILLE ARTCC AT 904-845-1592.

Instrument Procedures

NOTE: All procedures below are presented as PDF files. If you need a reader for these files, you should download the free Adobe Reader.

NOT FOR NAVIGATION. Please procure official charts for flight.
FAA instrument procedures published for use from 05 December 2019 at 0900Z to 02 January 2020 at 0900Z.

 
IAPs - Instrument Approach Procedures
RNAV (GPS) RWY 10 **CHANGED**   download (192KB)
RNAV (GPS) RWY 28 **CHANGED**   download (210KB)
NOTE: Special Take-Off Minimums/Departure Procedures apply   download (302KB)

Other nearby airports with instrument procedures:

15J - Cook County Airport (13 nm W)
KVAD - Moody Air Force Base (15 nm S)
KTMA - Henry Tift Myers Airport (19 nm NW)
KDQH - Douglas Municipal Airport (25 nm NE)
KHOE - Homerville Airport (25 nm E)
 
Loc | Ops | Rwys | IFR | FBO | Links
Com | Nav | Svcs | Stats | Notes
Area around 4J2 (Berrien County Airport)
 
Road maps at: MapQuest Bing Google
 
Aerial photo
WARNING: Photo may not be current or correct
Aerial photo of 4J2 (Berrien County Airport)
Photo courtesy of AirNav, LLC
Photo taken 01-Apr-2011
looking east.

Do you have a better or more recent aerial photo of Berrien County Airport that you would like to share? If so, please send us your photo.

 
Sectional chart

 
Airport distance calculator
Flying to Berrien County Airport? Find the distance to fly.

From to 4J2

Sunrise and sunset
Times for 08-Dec-2019
 Local
(UTC-5)
 Zulu
(UTC)
Morning civil twilight06:5411:54
Sunrise07:2012:20
Sunset17:2922:29
Evening civil twilight17:5622:56

Current date and time
Zulu (UTC)  08-Dec-2019 11:23:59
Local (UTC-5)  08-Dec-2019 06:23:59
 
METAR
KVAD 
15nm S 
081056Z AUTO 07009KT 10SM BKN007 BKN055 OVC080 11/09 A3023 RMK AO2 CIG 007V080 BKN007 V SCT SLP239 T01110094 $
KTMA 
19nm NW 
081055Z AUTO 07005KT 10SM BKN009 BKN075 10/09 A3024 RMK AO2 T01030090
KDQH 
25nm NE 
081055Z AUTO 07007G10KT 7SM OVC006 11/10 A3029 RMK AO2 T01050096
KHOE 
25nm E 
081055Z 06005KT OVC006 11/10 A3026 RMK AO2
KVLD 
27nm S 
081053Z AUTO 08006KT 10SM FEW060 BKN085 12/09 A3023 RMK AO2 SLP246 T01220094
KFZG 
28nm N 
081055Z AUTO 08007KT 040V100 10SM OVC008 11/09 A3030 RMK AO2 T01050092 PWINO
TAF
KVAD 
15nm S 
071728Z 0717/0823 09012KT 9999 SCT030 BKN050 QNH3015INS BECMG 0720/0721 07009KT 9999 SCT050 QNH3015INS BECMG 0809/0810 04006KT 9999 OVC005 QNH3021INS BECMG 0814/0815 06006KT 9999 FEW005 BKN020 QNH3013INS TX22/0721Z TN12/0805Z
NOTAMs
Click for the latest NOTAMs
NOTAMs are issued by the DoD/FAA and will open in a separate window not controlled by AirNav.

 

 
 

FBO, Fuel Providers, and Aircraft Ground Support

  
 Business Name 
 
 Contact 
 
 Services / Description 
 
Fuel Prices
 
Comments
  
Berrien County Airport 229-686-5421
no information available

If you are affiliated with Berrien County Airport and would like to show here your services, contact info, web link, logo, and more, click here
Jet A
SS $3.75 
 Updated 26-Nov-2019
 
   write
SS=Self service
Update Fuel Prices
 

Would you like to see your business listed on this page?

 If your business provides an interesting product or service to pilots, flight crews, aircraft, or users of the Berrien County Airport, you should consider listing it here.  To start the listing process, click on the button below
 
Add a business
 

Other Pages about Berrien County Airport

Update a link
 
Copyright © AirNav, LLC. All rights reserved. Privacy Policy  Contact